SKYNET 4E

Last updated on June 17, 2019, 3:36 a.m. UTC

1 25639U 99009B   19167.13398162 -.00000046  00000-0  00000+0 0  9999
2 25639  10.6663  23.3794 0002853  40.1829 247.5084  1.00272149 74365
UTC
Height (km)
Latitude
Longitude
Inclination
Orbital Period
UTC large
Height (km)
Speed (km/s)
/
Latitude / Longitude
Inclination (degrees)
Orbital Period (minutes)
Azimuth
Elevation
Range (km)
Doppler Factor
iOS Compass Heading
iOS Angle

Next 30 passes for location: Hong Kong

Rise time Rise Azimuth (degrees) Set time Set Azimuth (degrees) Duration Max altitude (degrees)

No matching passes for this satellites